Kingsville NAS, TX

8:13 AM CDT on July 29, 2017 (GMT -0500)
Kingsville Naval Air Station

Weather History for KNQI - March, 2014

Change the Weather History Date:

Saturday, March 1, 2014

  Actual Average Record
Temperature  
Mean Temperature 70 °F -  
Max Temperature 81 °F 71 °F 91 °F (1997)
Min Temperature 60 °F 51 °F 39 °F (2009)
Cooling Degree Days 6    
Growing Degree Days 20 (Base 50)    
Moisture  
Dew Point 66 °F    
Average Humidity 89    
Maximum Humidity 100    
Minimum Humidity 69    
Precipitation  
Precipitation 0.00 in - - ()
Sea Level Pressure  
Sea Level Pressure 29.94 in    
Wind  
Wind Speed 10 mph (SE)    
Max Wind Speed 22 mph    
Max Gust Speed 31 mph    
Visibility 8 miles    
Events Fog    
Averages and records for this station are not official NWS values.
T = Trace of Precipitation, MM = Missing Value Source: NWS Daily Summary

Daily Weather History Graph

Daily Weather History Graph

Search for Another Location

Airport or City:

Trip Planner

Search our weather history database for the weather conditions in past years. The results will help you decide how hot, cold, wet, or windy it might be!

Date:

Astronomy

Mar. 01, 2014 Rise Set
Actual Time 6:55 AM CST 6:32 PM CST
Civil Twilight 6:32 AM CST 6:55 PM CST
Nautical Twilight 6:04 AM CST 7:22 PM CST
Astronomical Twilight 5:37 AM CST 7:49 PM CST
Moon 6:55 AM CST (3/1) 7:12 PM CST (3/1)
Length of Visible Light 12h 23m
Length of Day
11h 36m
New Moon, 0% of the Moon is Illuminated
Mar 1
New Moon
Mar 8
First Quarter
Mar 16
Full
Mar 23
Last Quarter
Mar 30
New

Hourly Weather History & Observations

Time (CST) Temp. Heat Index Dew Point Humidity Pressure Visibility Wind Dir Wind Speed Gust Speed Precip Events Conditions
12:56 AM 64.0 °F - 63.0 °F 96% 29.89 in 10.0 mi South 6.9 mph - N/A   Clear
1:56 AM 63.0 °F - 62.1 °F 97% 29.89 in 10.0 mi SSE 8.1 mph - N/A   Clear
2:56 AM 63.0 °F - 62.1 °F 97% 29.88 in 10.0 mi SSE 6.9 mph - N/A   Clear
3:56 AM 63.0 °F - 62.1 °F 97% 29.89 in 10.0 mi South 8.1 mph - N/A   Clear
4:56 AM 64.0 °F - 63.0 °F 96% 29.89 in 10.0 mi South 9.2 mph - N/A   Clear
5:56 AM 61.0 °F - 61.0 °F 100% 29.91 in 10.0 mi SSE 5.8 mph - N/A   Clear
6:32 AM 61.0 °F - 61.0 °F 100% 29.93 in 1.8 mi SE 4.6 mph - N/A   Clear
6:43 AM 61.0 °F - 61.0 °F 100% 29.93 in 0.5 mi East 3.5 mph - N/A Fog Fog
6:56 AM 60.1 °F - 60.1 °F 100% 29.93 in 0.2 mi ESE 4.6 mph - N/A Fog Fog
7:56 AM 60.1 °F - 60.1 °F 100% 29.95 in 0.2 mi ENE 3.5 mph - N/A Fog Fog
8:06 AM 61.0 °F - 61.0 °F 100% 29.96 in 0.5 mi East 3.5 mph - N/A Fog Fog
8:21 AM 64.0 °F - 63.0 °F 96% 29.96 in 2.5 mi ESE 5.8 mph - N/A   Mostly Cloudy
8:29 AM 64.9 °F - 64.9 °F 100% 29.96 in 6.0 mi SE 5.8 mph - N/A   Mostly Cloudy
8:41 AM 66.0 °F - 66.0 °F 100% 29.97 in 10.0 mi SE 5.8 mph - N/A   Partly Cloudy
8:56 AM 68.0 °F - 66.9 °F 96% 29.97 in 10.0 mi SSE 9.2 mph - N/A   Clear
9:37 AM 73.0 °F - 66.9 °F 81% 29.99 in 10.0 mi South 15.0 mph - N/A   Mostly Cloudy
9:56 AM 75.0 °F - 68.0 °F 79% 29.99 in 10.0 mi South 18.4 mph - N/A   Overcast
10:04 AM 75.9 °F - 68.0 °F 76% 29.99 in 10.0 mi South 18.4 mph - N/A   Overcast
10:56 AM 75.9 °F - 68.0 °F 76% 29.99 in 10.0 mi South 17.3 mph - N/A   Overcast
11:56 AM 77.0 °F - 68.0 °F 74% 29.98 in 10.0 mi SE 15.0 mph - N/A   Overcast
12:56 PM 78.1 °F - 70.0 °F 76% 29.96 in 10.0 mi SE 13.8 mph - N/A   Overcast
1:15 PM 78.1 °F - 69.1 °F 74% 29.96 in 10.0 mi SE 16.1 mph - N/A   Overcast
1:56 PM 80.1 °F 83.2 °F 70.0 °F 71% 29.93 in 10.0 mi SE 15.0 mph - N/A   Overcast
2:56 PM 81.0 °F 84.4 °F 70.0 °F 69% 29.91 in 10.0 mi SE 18.4 mph 27.6 mph N/A   Overcast
3:56 PM 80.1 °F 83.2 °F 70.0 °F 71% 29.90 in 10.0 mi SE 21.9 mph 29.9 mph N/A   Mostly Cloudy
4:56 PM 77.0 °F - 70.0 °F 79% 29.89 in 10.0 mi SE 18.4 mph 31.1 mph N/A   Overcast
5:56 PM 73.9 °F - 69.1 °F 85% 29.91 in 10.0 mi SSE 19.6 mph 25.3 mph N/A   Overcast
6:56 PM 73.0 °F - 68.0 °F 84% 29.92 in 10.0 mi SSE 12.7 mph 20.7 mph N/A   Overcast
7:56 PM 72.0 °F - 69.1 °F 91% 29.93 in 10.0 mi SE 16.1 mph - N/A   Overcast
8:09 PM 72.0 °F - 69.1 °F 91% 29.95 in 10.0 mi SE 16.1 mph - N/A   Overcast
8:21 PM 72.0 °F - 69.1 °F 91% 29.95 in 10.0 mi SE 16.1 mph - N/A   Overcast
8:56 PM 72.0 °F - 69.1 °F 91% 29.94 in 10.0 mi SE 15.0 mph 23.0 mph N/A   Overcast
9:46 PM 72.0 °F - 69.1 °F 91% 29.95 in 10.0 mi SE 17.3 mph - N/A   Overcast
9:56 PM 72.0 °F - 69.1 °F 91% 29.94 in 10.0 mi SE 19.6 mph - N/A   Overcast
10:56 PM 72.0 °F - 70.0 °F 93% 29.93 in 10.0 mi SE 16.1 mph 27.6 mph N/A   Overcast
11:05 PM 72.0 °F - 70.0 °F 93% 29.95 in 10.0 mi SSE 18.4 mph 26.5 mph N/A   Overcast
11:46 PM 72.0 °F - 70.0 °F 93% 29.94 in 10.0 mi SSE 13.8 mph - N/A   Overcast
11:56 PM 72.0 °F - 70.0 °F 93% 29.93 in 10.0 mi SE 16.1 mph 23.0 mph N/A   Overcast